Regional Weather Roundup
Issued by NWS Cleveland, OH

Home | Current Version | Previous Version | Text Only | Print | Product List | Glossary Off
Versions: 1 2 3 4 5 6 7 8 9 10 11 12 13 14 15 16 17 18 19 20 21 22 23 24 25 26 27 28 29 30 31 32 33 34 35 36 37 38 39 40 41 42 43 44 45 46 47 48 49 50

000
ASUS41 KCLE 190402
RWRCLE
OHIO REGIONAL WEATHER ROUNDUP
NATIONAL WEATHER SERVICE CLEVELAND, OH
1200 AM EDT SAT APR 19 2014

NOTE: "FAIR" INDICATES FEW OR NO CLOUDS BELOW 12,000 FEET WITH NO
SIGNIFICANT WEATHER AND/OR OBSTRUCTIONS TO VISIBILITY.

OHZ001>008-015>018-024>027-034-035-043-044-190500-
   NORTHWEST OHIO

CITY           SKY/WX    TMP DP  RH WIND       PRES   REMARKS
DEFIANCE       CLEAR     48  34  58 N7        30.31R
FINDLAY        CLEAR     48  41  76 N8        30.28R
TOLEDO EXPRESS CLEAR     45  41  86 CALM      30.30R
TOLEDO EXEC    CLEAR     47  41  80 NE3       30.32R
LIMA           PTCLDY    51  37  58 N8        30.27R
$$

OHZ009>014-019>023-028>033-038-089-190500-
   NORTHEAST OHIO

CITY           SKY/WX    TMP DP  RH WIND       PRES   REMARKS
CLE-HOPKINS    PTCLDY    51  40  65 NE8       30.31R
CLE-LAKEFRONT  MOCLDY    49  41  74 NE6       30.27R
CUY CO. ARPT   NOT AVBL
LORAIN-ELYRIA  CLEAR     48  40  73 NE6       30.29R
ASHTABULA      PTCLDY    45  39  79 NE3       30.29R
AKRON-CANTON   MOCLDY    52  41  66 N9        30.26R
WOOSTER        PTCLDY    48  40  73 N9        30.27R
MANSFIELD      PTCLDY    50  41  71 NE6       30.26R
YOUNGSTOWN     CLOUDY    47  40  76 NE7       30.27R
$$

OHZ042-051>053-060>062-070>072-077>081-190500-
  SOUTHWEST OHIO

CITY           SKY/WX    TMP DP  RH WIND       PRES   REMARKS
CINC-COVINGTON CLOUDY    58  38  47 N6        30.24R
CINC-LUNKEN    MOCLDY    49  43  80 CALM      30.25R
HAMILTON       MOCLDY    57  41  55 N6        30.25S
DAYTON         MOCLDY    53  39  59 N7        30.26S
WRIGHT-PAT AFB MOCLDY    52  40  63 N5        30.25R
DAYTON GENERAL MOCLDY    59  39  47 N8        30.24R
WILMINGTON     MOCLDY    51  39  63 N5        30.24R
$$

OHZ036-037-039>041-045>050-054>059-063>069-073>076-082>088-190500-
  CENTRAL AND SOUTHEAST OHIO

CITY           SKY/WX    TMP DP  RH WIND       PRES   REMARKS
COLUMBUS       PTCLDY    54  39  57 CALM      30.23S
OSU AIRPORT    MOCLDY    55  39  54 NW7       30.24R
BOLTON FIELD   NOT AVBL
RICKENBACK AFB NOT AVBL
NEWARK         PTCLDY    48  42  80 CALM      30.23R
MARION         PTCLDY    48  42  80 N9        30.25R
LANCASTER      PTCLDY    45  41  86 CALM      30.24R
ZANESVILLE     PTCLDY    49  37  63 CALM      30.23S
NEW PHILLY     PTCLDY    48  39  71 CALM      30.25R
$$



USA.gov is the U.S. government's official web portal to all federal, state and local government web resources and services.